User: anonymous   Login
Location: Unspecified
(0.0000°N, 0.0000°E)
Time: 03:57:55
(UTC+00:00)
Language:

EUTE 21B - Orbit

View from above orbital plane
View from above orbital plane
View from above satellite
View from above satellite

Ground track
Ground track

The orbit data is extracted from the following two-line orbital elements,

1 38992U 12062B   18292.86151611 +.00000124 +00000-0 +00000-0 0  9990
2 38992 000.0685 018.4331 0002207 188.5397 153.0456 01.00272652021792
Epoch (UTC): 19 October 2018 20:40:34
Eccentricity: 0.0002207
inclination: 0.0685°
perigee height: 35776 km
apogee height: 35795 km
right ascension of ascending node: 18.4331°
argument of perigee: 188.5397°
revolutions per day: 1.00272652
mean anomaly at epoch: 153.0456°
orbit number at epoch: 2179

The dashed part of the orbit path shows where the satellite is in the earth's shadow,  

DLR